Hourly Weather Muni

Today, 29 September, Wednesday

Time Temperature Precipitation Wind Pressure Humidity
00:00 +12°C° 0 mm 1 mps 700 mmHg 92%
01:00 +12°C° 0 mm 1 mps 700 mmHg 93%
02:00 +12°C° 0 mm 1 mps 700 mmHg 93%
03:00 +11°C° 0 mm 0 mps 700 mmHg 93%
04:00 +12°C° 0 mm 1 mps 701 mmHg 94%
05:00 +12°C° 0 mm 1 mps 701 mmHg 94%
06:00 +11°C° 0 mm 1 mps 701 mmHg 95%
07:00 +12°C° 0 mm 1 mps 701 mmHg 92%
08:00 +13°C° 0 mm 1 mps 701 mmHg 89%
09:00 +13°C° 0 mm 1 mps 701 mmHg 86%
10:00 +13°C° 0 mm 1 mps 701 mmHg 87%
11:00 +13°C° 0 mm 1 mps 700 mmHg 88%
12:00 +13°C° 0 mm 1 mps 700 mmHg 89%
13:00 +13°C° 0.1 mm 1 mps 700 mmHg 90%
14:00 +13°C° 0.1 mm 1 mps 700 mmHg 92%
15:00 +12°C° 0.1 mm 1 mps 700 mmHg 93%
16:00 +12°C° 0.2 mm 1 mps 701 mmHg 94%
17:00 +12°C° 0.2 mm 1 mps 701 mmHg 95%
18:00 +12°C° 0.2 mm 1 mps 701 mmHg 96%
19:00 +12°C° 0.2 mm 1 mps 701 mmHg 97%
20:00 +11°C° 0.2 mm 1 mps 701 mmHg 97%
21:00 +11°C° 0.2 mm 1 mps 701 mmHg 97%
22:00 +11°C° 0.5 mm 1 mps 701 mmHg 97%
23:00 +11°C° 0.5 mm 1 mps 701 mmHg 97%

Tomorrow, 30 September, Thursday

Time Temperature Precipitation Wind Pressure Humidity
00:00 +10°C° 0.5 mm 0 mps 701 mmHg 97%
01:00 +10°C° 0.5 mm 0 mps 702 mmHg 97%
02:00 +11°C° 0.5 mm 1 mps 702 mmHg 97%
03:00 +11°C° 0.5 mm 1 mps 702 mmHg 97%
04:00 +11°C° 0.5 mm 1 mps 702 mmHg 97%
05:00 +10°C° 0.5 mm 1 mps 702 mmHg 98%
06:00 +10°C° 0.5 mm 1 mps 702 mmHg 98%
07:00 +10°C° 0.3 mm 1 mps 702 mmHg 98%
08:00 +10°C° 0.3 mm 1 mps 703 mmHg 98%
09:00 +10°C° 0.3 mm 1 mps 703 mmHg 98%
10:00 +10°C° 0.4 mm 1 mps 703 mmHg 98%
11:00 +10°C° 0.4 mm 1 mps 703 mmHg 98%
12:00 +10°C° 0.4 mm 1 mps 703 mmHg 98%
13:00 +10°C° 0.2 mm 1 mps 703 mmHg 98%
14:00 +11°C° 0.2 mm 1 mps 703 mmHg 98%
15:00 +11°C° 0.2 mm 1 mps 703 mmHg 98%
16:00 +11°C° 0.1 mm 1 mps 703 mmHg 98%
17:00 +10°C° 0.1 mm 1 mps 703 mmHg 98%
18:00 +10°C° 0.1 mm 1 mps 703 mmHg 98%
19:00 +10°C° 0.1 mm 1 mps 703 mmHg 98%
20:00 +10°C° 0.1 mm 1 mps 703 mmHg 98%
21:00 +10°C° 0.1 mm 1 mps 703 mmHg 98%
22:00 +10°C° 0.1 mm 1 mps 703 mmHg 98%
23:00 +10°C° 0.1 mm 1 mps 703 mmHg 98%

Day after tomorrow, 1 October, Friday

Time Temperature Precipitation Wind Pressure Humidity
00:00 +10°C° 0.1 mm 1 mps 703 mmHg 98%
01:00 +10°C° 0 mm 1 mps 703 mmHg 98%
02:00 +11°C° 0 mm 1 mps 703 mmHg 98%
03:00 +11°C° 0 mm 1 mps 703 mmHg 98%
04:00 +11°C° 0 mm 1 mps 703 mmHg 98%
05:00 +11°C° 0 mm 1 mps 703 mmHg 98%
06:00 +11°C° 0 mm 1 mps 703 mmHg 98%
07:00 +11°C° 0 mm 1 mps 703 mmHg 97%
08:00 +11°C° 0 mm 1 mps 703 mmHg 96%
09:00 +12°C° 0 mm 1 mps 703 mmHg 95%
10:00 +12°C° 0 mm 1 mps 703 mmHg 94%
11:00 +13°C° 0 mm 1 mps 703 mmHg 92%
12:00 +13°C° 0 mm 1 mps 702 mmHg 91%
13:00 +13°C° 0 mm 1 mps 702 mmHg 90%
14:00 +14°C° 0 mm 1 mps 702 mmHg 89%
15:00 +14°C° 0 mm 1 mps 702 mmHg 88%
16:00 +13°C° 0 mm 1 mps 702 mmHg 91%
17:00 +13°C° 0 mm 1 mps 702 mmHg 93%
18:00 +12°C° 0 mm 1 mps 703 mmHg 95%
19:00 +12°C° 0 mm 1 mps 703 mmHg 95%
20:00 +12°C° 0 mm 1 mps 703 mmHg 96%
21:00 +12°C° 0 mm 1 mps 703 mmHg 96%
22:00 +12°C° 0 mm 1 mps 703 mmHg 96%
23:00 +12°C° 0 mm 1 mps 703 mmHg 96%

2 October, Saturday

Time Temperature Precipitation Wind Pressure Humidity
00:00 +12°C° 0 mm 1 mps 703 mmHg 96%
01:00 +12°C° 0 mm 1 mps 703 mmHg 96%
02:00 +12°C° 0 mm 1 mps 703 mmHg 96%
03:00 +12°C° 0 mm 1 mps 703 mmHg 96%
04:00 +12°C° 0 mm 1 mps 703 mmHg 95%
05:00 +12°C° 0 mm 1 mps 702 mmHg 95%
06:00 +12°C° 0 mm 1 mps 702 mmHg 95%
07:00 +13°C° 0 mm 1 mps 702 mmHg 91%
08:00 +14°C° 0 mm 1 mps 702 mmHg 86%
09:00 +15°C° 0 mm 1 mps 702 mmHg 81%
10:00 +15°C° 0 mm 1 mps 702 mmHg 78%
11:00 +16°C° 0 mm 1 mps 702 mmHg 75%
12:00 +18°C° 0 mm 1 mps 702 mmHg 71%
13:00 +18°C° 0 mm 1 mps 702 mmHg 73%
14:00 +18°C° 0 mm 1 mps 702 mmHg 75%
15:00 +16°C° 0 mm 1 mps 702 mmHg 77%
16:00 +16°C° 0 mm 1 mps 702 mmHg 80%
17:00 +15°C° 0 mm 1 mps 702 mmHg 84%
18:00 +14°C° 0 mm 1 mps 702 mmHg 87%
19:00 +14°C° 0 mm 1 mps 702 mmHg 89%
20:00 +13°C° 0 mm 1 mps 702 mmHg 91%
21:00 +13°C° 0 mm 1 mps 702 mmHg 92%
22:00 +12°C° 0 mm 1 mps 702 mmHg 92%
23:00 +12°C° 0 mm 1 mps 702 mmHg 92%

3 October, Sunday

Time Temperature Precipitation Wind Pressure Humidity
00:00 +12°C° 0 mm 1 mps 702 mmHg 92%
01:00 +12°C° 0 mm 1 mps 702 mmHg 92%
02:00 +12°C° 0 mm 1 mps 702 mmHg 92%
03:00 +12°C° 0 mm 1 mps 702 mmHg 91%
04:00 +12°C° 0 mm 1 mps 702 mmHg 91%
05:00 +12°C° 0 mm 1 mps 702 mmHg 91%
06:00 +11°C° 0 mm 1 mps 702 mmHg 91%
07:00 +13°C° 0 mm 1 mps 702 mmHg 86%
08:00 +15°C° 0 mm 1 mps 702 mmHg 80%
09:00 +16°C° 0 mm 1 mps 702 mmHg 75%
10:00 +18°C° 0.1 mm 2 mps 701 mmHg 71%
11:00 +19°C° 0.1 mm 2 mps 701 mmHg 68%
12:00 +20°C° 0.1 mm 2 mps 701 mmHg 65%
13:00 +19°C° 0.1 mm 2 mps 701 mmHg 70%
14:00 +19°C° 0.1 mm 2 mps 701 mmHg 74%
15:00 +18°C° 0.1 mm 2 mps 700 mmHg 78%
16:00 +18°C° 0.1 mm 1 mps 701 mmHg 83%
17:00 +16°C° 0.1 mm 1 mps 701 mmHg 88%
18:00 +15°C° 0.1 mm 1 mps 701 mmHg 93%
19:00 +15°C° 0.2 mm 1 mps 701 mmHg 94%
20:00 +15°C° 0.2 mm 1 mps 701 mmHg 94%
21:00 +15°C° 0.2 mm 1 mps 701 mmHg 95%
22:00 +14°C° 0.4 mm 1 mps 701 mmHg 96%
23:00 +14°C° 0.4 mm 1 mps 701 mmHg 96%

4 October, Monday

Time Temperature Precipitation Wind Pressure Humidity
00:00 +14°C° 0.4 mm 1 mps 701 mmHg 96%
01:00 +14°C° 0.5 mm 1 mps 700 mmHg 96%
02:00 +14°C° 0.5 mm 1 mps 700 mmHg 96%
03:00 +14°C° 0.5 mm 1 mps 700 mmHg 96%
04:00 +14°C° 0.3 mm 1 mps 700 mmHg 96%
05:00 +14°C° 0.3 mm 1 mps 700 mmHg 96%
06:00 +13°C° 0.3 mm 1 mps 701 mmHg 96%
07:00 +13°C° 0.4 mm 1 mps 701 mmHg 96%
08:00 +13°C° 0.4 mm 1 mps 701 mmHg 96%
09:00 +13°C° 0.4 mm 1 mps 701 mmHg 96%
10:00 +13°C° 0.3 mm 1 mps 701 mmHg 95%
11:00 +13°C° 0.3 mm 1 mps 701 mmHg 95%
12:00 +13°C° 0.3 mm 1 mps 702 mmHg 95%
13:00 +13°C° 0.2 mm 1 mps 702 mmHg 95%
14:00 +13°C° 0.2 mm 1 mps 702 mmHg 95%
15:00 +13°C° 0.2 mm 1 mps 702 mmHg 96%
16:00 +13°C° 0.1 mm 1 mps 702 mmHg 96%
17:00 +13°C° 0.1 mm 1 mps 702 mmHg 96%
18:00 +13°C° 0.1 mm 1 mps 702 mmHg 97%
19:00 +13°C° 0 mm 1 mps 702 mmHg 97%
20:00 +13°C° 0 mm 1 mps 702 mmHg 97%
21:00 +12°C° 0 mm 1 mps 702 mmHg 97%
22:00 +12°C° 0 mm 1 mps 702 mmHg 97%
23:00 +12°C° 0 mm 1 mps 702 mmHg 97%
Show more

We Need Your Consent

Meteoprog and our Service Providers may store and access personal data such as cookies, device identifiers or other similar technologies on your device and process such data to personalise content and ads, as well as provide social media features and to analyse the traffic.

  • Store and/or access information on your device

    Cookies, device identifiers or other information can be stored or accessed on your device for the purposes indicated above.

  • Personalised ads and content, ad and content measurement, audience insights, and products development

    Ads and content can be personalised based on a profile. More data can be added to better personalise ads and content. Ad and content performance can be measured. Insights about the audience who saw the ads and content can be derived. Such data can be used to develop or improve user’s experience, systems and software.

By clicking ‘I Agree’ you will allow the use of indicated cookies, device identifiers, web beacons or other similar technologies. Your settings can be changed in the browser on your device.

For certain purposes, legitimate interests may be relied on, rather than consent. You can read more about this in our Privacy and Cookie Policy.